GW2438 Weather Reports


time (UTC)temp
C
wind
direction
speed
KPH
gust
KPH
rain 1hr
cm
rain 24hr
cm
rain mn
cm
humidity
%
barometer
mb
20260510030524 17 352 3.2 4.8 0.00 0.00 0.00 58 1016.0
20260510025522 17 328 1.6 3.2 0.00 0.00 0.00 57 1016.1
20260510024520 18 328 1.6 1.6 0.00 0.00 0.00 55 1016.1
20260510023519 18 326 1.6 3.2 0.00 0.00 0.00 54 1016.3
20260510022517 18 8 3.2 4.8 0.00 0.00 0.00 53 1016.4
20260510021615 18 343 3.2 6.4 0.00 0.00 0.00 52 1016.4
20260510020613 19 348 0.0 1.6 0.00 0.00 0.00 51 1016.4
20260510015612 19 347 3.2 4.8 0.00 0.00 0.00 49 1016.6
20260510014610 19 345 3.2 4.8 0.00 0.00 0.00 48 1016.6
20260510013608 20 350 1.6 4.8 0.00 0.00 0.00 51 1017.0
20260510012607 20 308 1.6 4.8 0.00 0.00 0.00 49 1017.1
20260510011626 20 6 1.6 4.8 0.00 0.00 0.00 50 1017.2
20260510010623 20 359 3.2 9.7 0.00 0.00 0.00 50 1017.3
20260510005622 20 330 1.6 6.4 0.00 0.00 0.00 50 1017.3
20260510004600 20 349 1.6 4.8 0.00 0.00 0.00 50 1017.2
20260510003558 20 7 1.6 4.8 0.00 0.00 0.00 50 1017.6
20260510002622 20 2 1.6 4.8 0.00 0.00 0.00 51 1017.6
20260510001555 20 16 4.8 6.4 0.00 0.00 0.00 51 1017.6
20260510000553 20 347 3.2 6.4 0.00 0.00 0.00 51 1017.8
20260509235552 20 8 4.8 11.3 0.00 0.00 0.00 51 1017.8
20260509234549 20 309 1.6 4.8 0.00 0.00 0.00 53 1018.1
20260509233547 20 343 1.6 4.8 0.00 0.00 0.00 53 1018.1
20260509232546 20 4 1.6 4.8 0.00 0.00 0.00 55 1018.1
20260509231544 20 5 3.2 9.7 0.00 0.00 0.00 54 1018.3
20260509230543 20 344 4.8 9.7 0.00 0.00 0.00 54 1018.3
20260509225541 20 6 4.8 11.3 0.00 0.00 0.00 55 1018.6
20260509224539 20 355 3.2 11.3 0.00 0.00 0.00 55 1018.8
20260509223538 20 354 6.4 11.3 0.00 0.00 0.00 54 1018.8
20260509222536 20 319 3.2 9.7 0.00 0.00 0.00 55 1019.2
20260509221534 20 12 4.8 11.3 0.00 0.00 0.00 52 1019.0
20260509220532 20 336 1.6 9.7 0.00 0.00 0.00 54 1019.3
20260509215530 20 359 4.8 11.3 0.00 0.00 0.00 52 1019.2
20260509214549 20 6 4.8 12.9 0.00 0.00 0.00 51 1019.2
20260509213527 20 6 3.2 9.7 0.00 0.00 0.00 51 1019.2
20260509212546 20 354 1.6 6.4 0.00 0.00 0.00 51 1019.6
20260509211524 20 30 3.2 6.4 0.00 0.00 0.00 53 1019.4
20260509210522 20 4 6.4 12.9 0.00 0.00 0.00 53 1019.5
20260509205521 20 341 3.2 11.3 0.00 0.00 0.00 55 1019.5
20260509204519 20 357 3.2 9.7 0.00 0.00 0.00 54 1019.7
20260509203537 19 315 1.6 3.2 0.00 0.00 0.00 56 1019.7
20260509202615 18 324 3.2 6.4 0.00 0.00 0.00 56 1019.8
20260509201614 18 354 3.2 9.7 0.00 0.00 0.00 57 1019.9
20260509200612 18 337 3.2 9.7 0.00 0.00 0.00 57 1020.0
20260509195610 18 3 3.2 12.9 0.00 0.00 0.00 60 1020.2
20260509194629 18 356 4.8 12.9 0.00 0.00 0.00 59 1020.4
20260509193607 18 345 3.2 6.4 0.00 0.00 0.00 60 1020.5
20260509192625 17 357 4.8 11.3 0.00 0.00 0.00 60 1020.6
20260509191603 17 20 4.8 14.5 0.00 0.00 0.00 61 1020.7
20260509190601 17 346 4.8 9.7 0.00 0.00 0.00 61 1020.8
20260509185619 17 2 6.4 9.7 0.00 0.00 0.00 61 1020.9
20260509184618 17 351 6.4 12.9 0.00 0.00 0.00 62 1020.9
20260509183556 16 359 6.4 11.3 0.00 0.00 0.00 66 1020.9
20260509182554 16 8 6.4 14.5 0.00 0.00 0.00 66 1020.9
20260509181612 16 1 8.0 12.9 0.00 0.00 0.00 66 1020.9
20260509180611 16 2 6.4 12.9 0.00 0.00 0.00 68 1021.0
20260509175608 16 340 1.6 6.4 0.00 0.00 0.00 69 1021.1
20260509174547 16 10 6.4 11.3 0.00 0.00 0.00 70 1021.2
20260509173545 16 1 4.8 9.7 0.00 0.00 0.00 69 1021.2
20260509172604 16 10 4.8 9.7 0.00 0.00 0.00 70 1021.3
20260509171622 15 345 3.2 4.8 0.00 0.00 0.00 70 1021.3
20260509170540 15 15 1.6 4.8 0.00 0.00 0.00 72 1021.3
20260509165538 15 5 4.8 9.7 0.00 0.00 0.00 74 1021.3
20260509164537 15 355 4.8 11.3 0.00 0.00 0.00 72 1021.5
20260509163535 15 4 4.8 9.7 0.00 0.00 0.00 72 1021.7
20260509162533 15 11 3.2 12.9 0.00 0.00 0.00 71 1021.6
20260509161551 16 21 1.6 4.8 0.00 0.00 0.00 70 1021.7
20260509160550 15 35 1.6 3.2 0.00 0.00 0.00 70 1021.7
20260509155528 16 72 1.6 1.6 0.00 0.00 0.00 69 1021.9
20260509154546 17 57 1.6 4.8 0.00 0.00 0.00 65 1022.1
20260509153524 18 96 1.6 4.8 0.00 0.00 0.00 63 1022.2
20260509152523 19 121 0.0 1.6 0.00 0.00 0.00 61 1022.1
20260509151521 21 99 1.6 4.8 0.00 0.00 0.00 58 1022.1
20260509150519 22 156 1.6 3.2 0.00 0.00 0.00 63 1022.2
20260509145518 20 168 1.6 3.2 0.00 0.00 0.00 69 1022.4
20260509144516 17 192 1.6 3.2 0.00 0.00 0.00 76 1022.4
20260509143614 15 194 0.0 1.6 0.00 0.00 0.00 89 1022.4
20260509142613 11 193 0.0 1.6 0.00 0.00 0.00 91 1022.4
20260509141611 10 195 1.6 3.2 0.00 0.00 0.00 91 1022.4
20260509140609 9 250 1.6 3.2 0.00 0.00 0.00 91 1022.5
20260509135608 8 251 1.6 3.2 0.00 0.00 0.00 91 1022.5
20260509134606 8 251 0.0 1.6 0.00 0.00 0.00 91 1022.6
20260509133704 8 0.0 0.0 0.00 0.00 0.00 90 1022.6
20260509132623 8 0.0 0.0 0.00 0.00 0.00 90 1022.7
20260509131601 8 0.0 0.0 0.00 0.00 0.00 90 1022.7
20260509130619 8 0.0 0.0 0.00 0.00 0.00 90 1022.7
20260509125557 7 0.0 0.0 0.00 0.00 0.00 90 1022.6
20260509124615 7 0.0 0.0 0.00 0.00 0.00 89 1022.6
20260509123554 7 0.0 0.0 0.00 0.00 0.00 89 1022.6
20260509122552 7 0.0 0.0 0.00 0.00 0.00 88 1022.5
20260509121550 8 0.0 0.0 0.00 0.00 0.00 88 1022.5
20260509120549 8 0.0 0.0 0.00 0.00 0.00 88 1022.7
20260509115547 8 0.0 0.0 0.00 0.00 0.00 88 1022.9
20260509114546 8 0.0 0.0 0.00 0.00 0.00 88 1022.7
20260509113544 8 0.0 0.0 0.00 0.00 0.00 87 1022.7
20260509112542 8 0.0 0.0 0.00 0.00 0.00 87 1022.7
20260509111540 8 0.0 0.0 0.00 0.00 0.00 87 1022.7
20260509110558 8 0.0 0.0 0.00 0.00 0.00 87 1022.8
20260509105537 8 0.0 0.0 0.00 0.00 0.00 86 1022.9
20260509104555 8 0.0 0.0 0.00 0.00 0.00 85 1022.9
20260509103533 9 0.0 0.0 0.00 0.00 0.00 84 1022.9
20260509102531 9 0.0 0.0 0.00 0.00 0.00 84 1022.8
20260509101530 10 0.0 0.0 0.00 0.00 0.00 83 1023.1
20260509100528 10 0.0 0.0 0.00 0.00 0.00 83 1023.0
20260509095526 10 0.0 0.0 0.00 0.00 0.00 83 1023.1
20260509094525 10 0.0 0.0 0.00 0.00 0.00 83 1023.2
20260509093543 10 0.0 0.0 0.00 0.00 0.00 81 1023.2
20260509092521 11 251 0.0 1.6 0.00 0.00 0.00 81 1023.3
20260509091540 11 251 0.0 1.6 0.00 0.00 0.00 81 1023.3
20260509090518 11 251 0.0 1.6 0.00 0.00 0.00 81 1023.4
20260509085516 11 244 1.6 1.6 0.00 0.00 0.00 82 1023.3
20260509084614 11 239 3.2 6.4 0.00 0.00 0.00 82 1023.4
20260509083617 11 229 1.6 4.8 0.00 0.00 0.00 82 1023.5
20260509082611 11 237 1.6 3.2 0.00 0.00 0.00 82 1023.4
20260509081609 11 237 1.6 3.2 0.00 0.00 0.00 82 1023.5
20260509080608 11 236 1.6 3.2 0.00 0.00 0.00 82 1023.4
20260509075606 11 225 1.6 4.8 0.00 0.00 0.00 82 1023.3
20260509074604 11 223 1.6 1.6 0.00 0.00 0.00 82 1023.2
20260509073622 11 231 1.6 3.2 0.00 0.00 0.00 82 1023.3
20260509072601 11 216 1.6 1.6 0.00 0.00 0.00 82 1023.3
20260509071559 11 229 1.6 3.2 0.00 0.00 0.00 82 1023.2
20260509070557 11 232 1.6 3.2 0.00 0.00 0.00 82 1023.2
20260509065555 10 235 0.0 1.6 0.00 0.00 0.00 81 1023.3
20260509064634 11 0.0 0.0 0.00 0.00 0.00 81 1023.2
20260509063551 11 209 0.0 1.6 0.00 0.00 0.00 81 1023.2
20260509062550 11 216 0.0 1.6 0.00 0.00 0.00 81 1023.2
20260509061548 11 0.0 0.0 0.00 0.00 0.00 80 1023.1
20260509060546 11 213 1.6 3.2 0.00 0.00 0.00 80 1023.0
20260509055545 11 237 1.6 3.2 0.00 0.00 0.00 79 1023.0
20260509054543 11 224 1.6 3.2 0.00 0.00 0.00 79 1022.9
20260509053542 11 228 3.2 4.8 0.00 0.00 0.00 78 1022.8
20260509052539 11 218 3.2 4.8 0.00 0.00 0.00 77 1022.9
20260509051538 11 232 3.2 6.4 0.00 0.00 0.00 76 1022.8
20260509050536 11 238 3.2 6.4 0.00 0.00 0.00 75 1022.8
20260509045534 11 244 3.2 4.8 0.00 0.00 0.00 75 1022.8
20260509044533 12 242 3.2 4.8 0.00 0.00 0.00 75 1022.8
20260509043531 12 236 4.8 9.7 0.00 0.00 0.00 74 1022.8
20260509042529 12 240 4.8 9.7 0.00 0.00 0.00 73 1022.8
20260509041547 12 251 3.2 9.7 0.00 0.00 0.00 72 1022.6
20260509040526 12 238 3.2 9.7 0.00 0.00 0.00 72 1022.5
20260509035524 12 262 3.2 11.3 0.00 0.00 0.00 71 1022.4
20260509034523 13 259 4.8 11.3 0.00 0.00 0.00 70 1022.3
20260509033521 13 257 3.2 9.7 0.00 0.00 0.00 69 1022.2
20260509032519 13 246 1.6 4.8 0.00 0.00 0.00 67 1022.2
20260509031517 14 244 1.6 4.8 0.00 0.00 0.00 66 1022.1